Terminal Aerodrome Forecast
Issued by NWS

Home | Current Version | Previous Version | Text Only | Print | Product List | Glossary On
Versions: 1 2 3 4 5 6 7 8 9 10 11 12 13 14 15 16 17 18 19 20 21 22
000
FTUS41 KOKX 292324
TAFHPN
TAF
KHPN 292324Z 3000/3024 21004KT P6SM SCT250
     FM300900 21005KT P6SM OVC100
     FM301100 22006KT P6SM SCT020 OVC050
     FM301400 23010KT P6SM SCT020 OVC050
     FM301800 25013G19KT P6SM BKN050
     FM302200 28013G19KT P6SM BKN050
      AMD NOT SKED=

USA.gov is the U.S. government's official web portal to all federal, state and local government web resources and services.